Flag for Ukraine Weather past 2 weeks in Luhansk, Ukraine

Now
57 °F

Clear.


Feels Like: 55 °F
Forecast: 50 / 71 °F
Wind: 10 mph from East

Location: Rostov-Na-Donu

Current Time: Sep 22, 2014 at 9:32:00 PM

Latest Report: Sep 22, 2014 at 8:30 PM


Visibility: 10 mi

Pressure: 29.95 "Hg

Humidity: 63%

Dew point: 45 °F

Location of LuhanskLocation

Historic Weather in Luhansk — Graph

°F

Luhansk temperature yesterday

Maximum temperature yesterday: 66 °F (at 2:00 PM)
Minimum temperature yesterday: 48 °F (at 4:00 AM)
Average temperature yesterday: 57 °F

Past Weeks' High & Low Weather Summary

 TemperatureHumidityPressure
High79 °F (Sep 11, 3:00 PM)100% (Sep 8, 10:30 AM)30.27 "Hg (Sep 8, 10:30 AM)
Low46 °F (Sep 18, 3:30 AM)20% (Sep 18, 3:00 PM)29.83 "Hg (Sep 8, 5:30 AM)
Average63 °F58%30.04 "Hg
* Reported Sep 7 8:00 PM — Sep 22 8:30 PM, Luhansk, Weather by CustomWeather, © 2014

Note: Actual official high and low records may vary slightly from our data, if they occured in-between our weather recording intervals... More about our weather records

Advertising

Luhansk weather history for previous 24 hours

 ConditionsComfort  
Time TempWeatherWind HumidityBarometerVisibility
8:30 PM
Sep 22
57 °FClear.10 mph63%29.95 "Hg10 mi
8:00 PM57 °FClear.10 mph63%29.95 "Hg10 mi
7:30 PM59 °FClear.10 mph63%29.95 "Hg10 mi
7:00 PM59 °FSunny.13 mph63%29.95 "Hg10 mi
6:30 PM61 °FPartly sunny.13 mph59%29.92 "HgN/A
6:00 PM61 °FPartly sunny.13 mph59%29.92 "HgN/A
5:30 PM61 °FPartly sunny.15 mph59%29.92 "HgN/A
5:00 PM63 °FPartly sunny.15 mph56%29.92 "HgN/A
4:30 PM63 °FPartly sunny.15 mph56%29.92 "HgN/A
4:00 PM63 °FPartly sunny.15 mph56%29.95 "HgN/A
3:30 PM63 °FPartly sunny.15 mph59%29.95 "HgN/A
3:00 PM63 °FPartly sunny.17 mph59%29.95 "HgN/A
2:30 PM63 °FPartly sunny.17 mph64%29.95 "HgN/A
2:00 PM63 °FPartly sunny.17 mph64%29.95 "HgN/A
1:30 PM61 °FPartly sunny.17 mph68%29.95 "HgN/A
1:00 PM61 °FBroken clouds.17 mph68%29.95 "HgN/A
12:30 PM61 °FPartly sunny.17 mph68%29.98 "HgN/A
12:00 PM59 °FPartly sunny.20 mph68%29.98 "HgN/A
11:30 AM59 °FBroken clouds.20 mph68%29.98 "HgN/A
11:00 AM57 °FBroken clouds.17 mph77%29.98 "HgN/A
10:30 AM57 °FBroken clouds.17 mph77%29.98 "HgN/A
10:00 AM57 °FBroken clouds.15 mph77%29.98 "HgN/A
9:30 AM57 °FBroken clouds.13 mph72%29.98 "HgN/A
9:00 AM55 °FBroken clouds.13 mph67%29.98 "HgN/A
8:30 AM55 °FMostly cloudy.13 mph67%29.98 "HgN/A
8:00 AM54 °FMostly cloudy.15 mph72%29.98 "HgN/A
7:30 AM54 °FOvercast.13 mph72%30.01 "HgN/A
7:00 AM52 °FLight rain. Overcast.10 mph77%30.01 "HgN/A
6:30 AM50 °FLight rain. Overcast.13 mph82%30.01 "Hg5 mi
6:00 AM54 °FLight rain. Overcast.10 mph63%30.01 "HgN/A
5:30 AM54 °FOvercast.13 mph63%29.98 "HgN/A
5:00 AM54 °FOvercast.8 mph58%29.98 "HgN/A
4:30 AM54 °FOvercast.8 mph54%30.01 "HgN/A
4:00 AM54 °FOvercast.8 mph54%30.01 "HgN/A
3:30 AM54 °FOvercast.8 mph54%30.01 "HgN/A
3:00 AM54 °FMostly cloudy.10 mph51%30.01 "HgN/A
2:30 AM54 °FMostly cloudy.10 mph51%30.01 "HgN/A
2:00 AM54 °FMostly cloudy.8 mph51%30.01 "HgN/A
1:30 AM54 °FPartly cloudy.8 mph51%30.01 "HgN/A
1:00 AM52 °FClear.8 mph54%30.04 "Hg10 mi
12:30 AM52 °FClear.8 mph54%30.04 "Hg10 mi
12:00 AM54 °FClear.8 mph51%30.04 "Hg10 mi
11:30 PM
Sep 21
54 °FClear.8 mph54%30.04 "Hg10 mi
11:00 PM54 °FClear.6 mph54%30.04 "Hg10 mi
10:30 PM54 °FClear.8 mph54%30.04 "Hg10 mi
10:00 PM54 °FClear.8 mph54%30.04 "Hg10 mi
9:30 PM52 °FClear.6 mph54%30.04 "Hg10 mi
9:00 PM52 °FClear.6 mph54%30.07 "Hg10 mi
Weather by CustomWeather, © 2014

See weather overviewHow to use our weather pages